Flag for Australia Weather past 2 weeks in The Settlement, Christmas Island, Australia

Now
82 °F

Broken clouds.


Feels Like: 89 °F
Forecast: 77 / 83 °F
Wind: 6 mph from South

Location: Christmas Island Aerodrome

Current Time: Apr 19, 2015 at 12:22:02 PM

Latest Report: Apr 19, 2015 at 12:00 PM


Visibility: N/A

Pressure: 29.92 "Hg

Humidity: 79%

Dew point: 75 °F

Location of The SettlementLocation

Historic Weather in The Settlement — Graph

°F

The Settlement temperature yesterday

Maximum temperature yesterday: 82 °F (at 1:00 PM)
Minimum temperature yesterday: 75 °F (at 5:00 PM)
Average temperature yesterday: 78 °F

Past Weeks' High & Low Weather Summary

 TemperatureHumidityPressure
High86 °F (Apr 10, 11:00 AM)100% (Apr 8, 9:01 PM)29.98 "Hg (Apr 8, 9:01 PM)
Low73 °F (Apr 13, 4:00 AM)59% (Apr 12, 1:00 PM)29.74 "Hg (Apr 6, 4:00 PM)
Average79 °F88%29.88 "Hg
* Reported Apr 4 11:00 AM — Apr 19 11:00 AM, The Settlement, Weather by CustomWeather, © 2015

Note: Actual official high and low records may vary slightly from our data, if they occured in-between our weather recording intervals... More about our weather records

Advertising

The Settlement weather history for previous 24 hours

 ConditionsComfort  
Time TempWeatherWind HumidityBarometerVisibility
11:00 AM
Sun, Apr 19
82 °FScattered clouds.6 mph79%29.92 "HgN/A
10:00 AM82 °FDrizzle. Mostly cloudy.6 mph84%29.95 "HgN/A
9:00 AM84 °FScattered clouds.5 mph74%29.95 "HgN/A
8:00 AM79 °FSunny.2 mph94%29.92 "HgN/A
7:00 AM77 °FSunny.3 mph94%29.89 "HgN/A
6:00 AM75 °FClear.No wind100%29.89 "HgN/A
5:00 AM75 °FClear.No wind100%29.86 "Hg3 mi
4:00 AM77 °FClear.3 mph94%29.86 "HgN/A
3:00 AM77 °FClear.3 mph94%29.86 "HgN/A
2:00 AM77 °FClear.3 mph94%29.89 "HgN/A
1:00 AM75 °FLight rain. Passing clouds.No wind100%29.89 "HgN/A
12:00 AM75 °FClear.3 mph100%29.92 "HgN/A
11:00 PM
Sat, Apr 18
77 °FLight rain. Passing clouds.3 mph94%29.92 "Hg6 mi
10:00 PM75 °FClear.No wind100%29.92 "HgN/A
9:00 PM77 °FClear.No wind94%29.92 "HgN/A
8:00 PM77 °FClear.No wind94%29.89 "HgN/A
7:55 PM77 °FClear.No wind94%29.89 "HgN/A
7:00 PM77 °FClear.6 mph94%29.83 "HgN/A
6:00 PM77 °FClear.6 mph89%29.83 "HgN/A
5:00 PM75 °FScattered clouds.6 mph94%29.83 "HgN/A
4:04 PM77 °FLots of rain. Cloudy.8 mph94%29.86 "Hg1 mi
3:00 PM81 °FSunny.3 mph84%29.86 "HgN/A
2:00 PM81 °FScattered clouds.3 mph84%29.86 "HgN/A
1:00 PM82 °FSunny.3 mph84%29.89 "HgN/A
12:00 PM81 °FSunny.3 mph84%29.89 "HgN/A
Weather by CustomWeather, © 2015

See weather overviewHow to use our weather pages